Dewpoint
73 71 70 70 69 69 67 68 58 55 56 47 48 49 50 54 55 55 54 56 55 58 55 54 53 53 56 52 53 54 56 55 54 50 53 61 67 64 65 66 67 67 68 69 70 72 74 75 74 74 75 74 74 74 74 74 75 74 75 74 74 75 74 74 72 73 74 75 75 75 75 75 75 75 75 75 75 75 75 76 76 76 76 76 76 75 75 75 75 75 75 75 75 75 75 75 75
68 66 67 69 68 70 65 65 58 47 48 47 50 50 53 55 54 51 53 56 53 52 51 52 52 59 60 57 53 53 55 56 58 57 59 63 64 64 65 66 66 66 67 67 67 67 70 76 74 74 74 74 74 74 73 74 74 74 74 74 74 75 75 73 73 74 74 75 75 75 75 75 74 75 75 76 75 75 76 76 76 76 76 75 75 75 75 75 75 75 75 75 75 75 75 75 75
65 67 69 70 69 70 65 66 53 44 44 43 48 50 56 54 51 55 58 55 52 51 52 55 58 59 55 57 53 57 54 57 58 58 60 63 63 66 65 66 67 67 66 67 67 67 71 74 74 74 75 74 74 74 73 73 73 73 74 74 74 75 74 74 75 75 74 74 75 75 75 75 75 75 75 75 75 75 75 75 75 76 75 75 76 76 76 75 75 75 75 75 76 76 75 75 75
67 69 68 68 66 68 63 59 52 43 43 45 48 54 54 53 54 57 57 55 53 52 54 55 56 60 57 53 52 54 56 56 58 58 60 61 62 65 66 68 70 67 67 68 67 69 72 75 74 74 74 74 74 73 73 73 73 74 75 75 75 74 75 75 75 75 75 74 74 74 75 75 76 75 75 75 75 75 75 75 75 75 75 75 75 75 76 75 75 75 76 76 76 76 75 75 75
69 71 71 68 67 63 62 56 48 43 42 44 48 53 54 54 56 57 57 54 53 53 55 55 53 58 59 58 57 55 56 58 59 59 61 64 64 65 68 69 68 68 68 68 69 69 73 75 75 75 75 74 74 73 73 73 73 74 75 74 75 75 76 75 75 75 75 75 75 75 75 75 76 75 75 75 75 75 75 75 75 75 75 75 75 75 76 76 75 75 75 75 75 75 76 76 75
72 71 72 71 66 67 62 51 48 47 50 50 49 53 55 56 58 57 55 54 54 55 58 58 53 53 55 57 58 55 57 55 59 60 61 63 65 66 68 70 68 68 67 69 68 71 73 76 76 75 75 74 73 73 73 73 73 74 75 74 75 75 75 75 75 75 75 75 75 75 75 75 76 75 75 75 75 75 75 75 75 75 75 75 76 76 76 76 76 75 75 75 75 75 75 76 75
70 70 70 69 68 67 55 50 47 45 53 55 51 55 57 58 59 57 56 53 53 56 57 55 53 54 54 57 58 61 61 59 59 61 62 64 66 66 67 67 67 68 67 68 69 72 73 75 75 74 74 74 73 73 72 72 73 73 74 74 74 74 75 76 75 75 74 74 74 75 75 75 74 75 75 75 75 75 75 75 75 76 75 76 75 76 75 75 75 75 75 75 75 75 75 75 75
70 70 66 64 58 62 52 50 49 46 53 58 55 57 60 60 59 58 55 52 52 55 57 54 55 55 55 58 58 61 62 63 62 64 64 65 66 66 66 65 66 66 66 68 71 74 76 75 75 74 74 74 74 74 74 73 73 74 75 74 74 75 74 74 74 75 74 75 74 75 74 74 74 75 75 75 75 75 75 75 75 75 75 75 75 75 75 75 75 75 75 75 75 75 75 75 75
70 68 69 64 56 57 51 50 53 55 54 56 60 63 62 60 60 58 56 56 53 55 55 54 53 54 55 55 58 61 62 63 64 66 65 65 65 65 65 64 64 64 64 67 70 72 74 75 75 73 73 73 73 73 73 74 74 74 74 74 74 74 75 74 74 74 74 72 73 73 73 73 74 75 75 75 75 75 75 75 75 76 75 75 75 74 75 74 74 74 74 75 75 75 75 75 74
67 67 62 61 56 54 53 52 48 51 53 56 58 62 62 61 60 59 58 56 56 55 58 55 54 55 55 54 57 59 61 63 64 64 65 64 64 65 64 65 65 65 66 69 71 72 74 75 74 73 72 72 74 74 74 74 74 74 74 74 74 74 74 75 74 74 73 73 73 72 73 74 74 75 74 75 75 75 75 75 75 76 75 75 75 75 74 74 74 74 74 74 74 75 75 74 74
67 66 66 59 54 54 51 50 51 54 55 58 61 62 62 62 61 59 59 59 56 56 55 55 53 53 54 57 60 63 63 63 62 62 64 64 65 63 63 67 66 67 68 70 70 71 73 75 74 73 73 73 73 74 74 73 73 73 74 73 74 74 74 74 73 73 73 73 73 74 74 74 74 74 74 74 74 74 75 75 75 76 75 75 74 75 74 74 74 74 73 73 74 75 75 75 75
64 61 63 57 53 53 50 49 51 52 55 56 58 63 62 62 60 58 59 57 56 54 54 55 54 53 53 54 58 63 62 62 62 63 64 64 62 62 64 66 67 67 68 69 70 72 73 75 74 74 73 73 73 73 73 73 74 73 73 74 74 74 74 74 73 72 72 73 73 74 74 74 74 74 74 75 74 75 75 75 75 75 74 75 75 75 74 74 74 74 74 74 73 74 75 75 75
62 62 57 59 59 53 54 52 52 53 54 55 56 62 61 60 59 57 57 57 55 53 53 59 54 52 50 55 61 61 62 62 62 63 63 62 61 63 65 66 67 68 70 70 70 72 73 73 73 73 74 73 73 73 72 73 73 73 73 74 74 73 73 74 73 72 73 73 73 74 74 74 74 74 74 74 75 75 74 74 75 75 75 74 75 75 75 74 74 74 73 73 75 75 74 74 74
64 62 62 57 58 52 50 51 54 51 51 56 60 62 61 60 60 59 57 57 56 58 56 55 54 53 55 56 59 59 61 63 63 62 61 61 63 65 66 67 68 69 69 70 70 71 74 75 74 73 73 72 73 73 72 73 73 73 73 73 73 73 73 73 73 74 74 74 74 74 74 75 74 74 74 74 74 75 75 74 74 75 75 75 75 75 75 75 75 73 73 71 75 75 74 74 74
63 63 61 55 53 50 53 49 50 50 53 58 62 61 62 62 60 58 59 58 61 57 56 57 55 51 51 51 56 57 61 62 61 61 63 64 65 66 67 67 68 68 67 69 69 71 72 73 73 73 73 72 73 74 74 73 73 73 74 74 73 73 73 73 73 74 74 74 74 74 74 74 74 74 73 74 74 74 74 74 74 75 74 75 75 75 75 75 74 73 74 74 75 75 74 74 74
66 62 60 55 51 50 51 51 52 51 52 58 60 61 61 61 61 60 62 62 57 56 55 53 55 58 50 49 54 58 61 61 61 62 63 65 66 66 66 66 67 67 68 69 70 71 72 72 72 72 73 73 73 73 74 74 73 73 73 73 73 73 73 73 74 74 74 74 74 74 74 74 73 74 74 74 74 73 73 73 74 75 74 74 75 75 75 75 74 73 73 74 74 75 75 75 75
65 64 57 53 51 52 52 52 49 45 54 59 61 60 59 60 62 63 63 61 56 57 59 55 54 54 52 53 58 60 60 60 63 63 64 65 65 63 66 66 67 67 68 70 71 71 71 72 73 72 73 72 73 73 73 74 73 73 73 73 73 74 73 73 74 74 74 74 74 74 74 73 73 74 74 73 74 73 73 73 74 75 75 75 75 75 75 74 75 74 74 75 75 75 75 76 75
64 59 54 52 54 53 54 54 55 56 56 59 60 60 60 59 60 61 61 59 60 56 56 57 57 56 57 59 59 60 60 61 62 62 62 63 64 63 63 65 65 67 68 69 71 71 71 72 73 73 73 72 72 72 73 74 73 73 74 74 73 73 73 73 74 75 74 75 74 75 74 73 74 74 73 73 74 74 74 74 74 74 75 75 75 75 74 74 74 74 74 74 74 73 75 71 74
62 57 55 51 54 60 62 62 61 56 55 60 59 60 59 59 61 61 58 58 57 54 55 57 57 59 60 60 60 61 62 62 62 62 60 61 62 62 63 65 66 66 68 69 70 70 72 71 71 71 71 71 72 73 73 73 73 73 74 73 74 73 74 74 75 75 76 75 74 75 75 74 73 74 73 73 74 73 73 74 74 75 75 75 75 74 74 74 73 73 73 73 73 74 71 67 69
61 62 53 56 61 61 64 65 64 65 59 59 59 59 59 60 60 58 58 55 55 53 54 55 56 56 59 61 61 61 62 62 62 61 60 61 61 61 63 63 64 67 66 67 69 70 69 69 70 71 71 71 72 72 74 73 73 73 74 74 74 74 74 74 75 75 75 75 75 75 74 75 74 73 74 74 74 74 74 75 75 73 73 73 72 72 73 73 73 73 74 74 75 72 68 67 65
59 59 57 59 60 58 62 65 66 63 60 59 60 59 59 59 59 58 57 54 56 55 53 54 54 57 59 61 60 61 61 61 62 61 61 61 62 61 61 62 64 66 67 67 70 70 69 69 70 71 72 72 72 72 73 73 74 73 73 73 73 74 74 74 74 75 75 76 75 74 74 74 73 74 75 75 74 74 73 71 71 70 70 71 74 70 69 72 72 69 70 71 67 67 66 67 67
61 58 61 62 60 60 64 66 66 62 60 60 59 58 58 60 59 59 56 52 52 54 53 54 56 57 59 60 60 60 60 61 61 62 61 61 61 62 62 63 65 65 67 68 69 70 69 70 71 70 71 72 72 73 72 73 73 72 73 73 72 72 73 73 73 74 74 76 74 73 74 75 74 74 74 73 72 70 69 66 66 68 69 70 70 68 67 68 67 67 66 66 65 65 64 67 67
58 60 61 64 63 62 66 66 66 63 61 60 59 58 60 59 59 59 57 57 59 57 54 56 57 58 59 60 60 59 59 60 60 61 61 60 61 61 61 63 64 64 67 68 69 69 70 71 71 70 71 73 73 73 73 72 72 72 72 73 72 71 72 72 72 73 74 75 74 74 72 72 71 69 71 71 70 69 67 66 67 68 68 68 68 67 68 68 66 64 65 67 65 63 64 67 67
54 56 61 64 66 64 66 67 66 61 61 60 60 60 59 59 58 60 57 59 61 58 55 58 58 59 59 59 59 59 60 60 60 60 60 60 60 60 61 62 63 65 68 67 67 68 70 70 72 72 73 72 73 72 72 71 72 71 72 72 73 72 71 71 72 72 75 74 74 73 72 70 68 67 70 69 68 68 67 68 68 65 66 68 68 67 66 65 65 66 69 68 67 68 63 64 64
59 59 62 64 65 66 64 64 64 63 62 63 62 60 60 59 59 59 59 59 57 55 57 59 59 59 59 59 59 60 61 60 59 59 60 61 61 61 62 63 64 65 65 66 67 67 68 70 71 72 72 72 72 71 71 71 71 72 72 73 72 73 73 72 72 74 73 72 73 74 73 68 67 67 68 67 67 69 68 67 65 66 68 67 68 66 68 68 67 66 68 68 69 68 65 65 66
59 60 62 64 64 65 64 65 65 64 64 63 60 60 61 62 59 60 59 59 59 57 58 59 59 59 59 58 59 60 61 60 60 60 60 61 61 61 61 63 64 64 65 66 67 68 68 68 69 70 71 72 71 69 72 72 72 73 73 73 72 73 72 72 73 70 70 69 70 72 71 69 66 66 67 67 67 68 68 69 69 68 67 68 67 69 67 66 67 67 68 69 67 68 67 68 68
60 62 63 64 64 64 64 65 65 66 65 62 61 61 61 60 59 56 61 58 57 57 58 59 59 58 58 58 59 60 60 61 60 60 60 61 62 61 61 62 64 64 65 66 66 68 69 67 67 70 71 72 70 69 72 72 73 72 72 71 71 71 71 71 70 69 69 69 71 74 74 72 67 65 67 70 70 71 72 71 69 69 66 68 69 68 69 70 68 67 68 68 70 70 68 66 66
63 62 61 62 65 65 64 64 63 66 62 66 61 60 60 60 61 52 61 59 56 57 58 58 57 58 58 58 59 61 61 61 61 61 60 61 61 61 61 63 63 64 64 65 67 69 67 67 67 68 69 70 70 69 71 71 72 71 72 71 70 71 71 69 69 69 70 70 71 73 73 72 71 68 71 72 72 71 70 69 69 70 69 68 70 70 68 69 69 68 71 72 71 70 69 67 68
63 62 59 61 62 62 64 62 63 66 61 65 62 61 59 58 56 60 58 59 58 57 57 57 57 57 59 58 59 61 61 62 62 62 61 63 62 61 60 62 63 65 65 65 67 67 66 67 68 69 69 70 70 68 69 70 70 69 70 70 71 70 70 70 68 69 71 72 73 73 74 74 73 72 74 74 73 70 71 70 69 70 70 70 71 69 70 70 69 67 69 70 69 70 67 68 66
64 64 60 60 59 61 64 64 64 64 63 65 64 52 54 57 60 60 62 59 57 58 57 56 56 56 57 58 59 60 61 62 62 63 63 63 64 62 61 62 63 64 66 66 66 66 67 66 67 68 69 69 70 68 70 69 70 70 70 70 72 71 69 68 69 70 71 71 73 74 73 74 73 74 74 74 72 69 71 71 70 69 72 74 73 71 67 67 67 68 67 68 68 69 66 67 64
58 61 62 56 57 57 63 63 63 61 63 64 65 54 55 58 61 61 61 59 56 56 54 54 56 55 56 57 58 60 60 61 61 62 62 64 63 63 62 62 64 64 66 65 65 66 67 67 66 67 69 69 70 70 69 70 70 69 69 70 71 70 70 69 67 69 69 70 70 72 73 74 75 75 75 75 72 72 69 71 71 72 74 75 71 71 68 69 69 68 68 68 69 69 66 67 66
58 55 55 54 53 57 61 63 63 59 61 64 61 54 56 57 59 62 62 61 58 55 54 53 54 55 55 56 58 58 59 60 61 61 62 63 64 63 62 62 64 63 64 66 66 66 66 66 67 66 68 69 70 70 70 71 70 70 70 70 71 72 69 68 67 67 68 67 68 72 74 75 75 75 76 75 73 72 70 70 70 74 75 74 73 73 72 70 70 69 69 69 68 66 67 65 66
55 52 52 51 53 56 58 62 64 63 62 63 60 54 57 57 59 61 62 62 59 57 54 54 54 55 54 55 57 57 58 59 61 61 62 64 64 63 63 62 64 64 64 65 66 67 67 66 67 66 66 67 70 69 71 71 71 71 71 69 68 71 67 67 67 67 67 67 67 68 73 74 76 75 76 76 75 72 70 71 70 72 75 74 74 73 71 70 69 64 72 72 71 69 65 63 64
50 50 50 53 51 55 55 62 63 63 61 57 59 55 56 56 57 60 61 62 60 57 56 55 55 54 55 55 55 57 59 58 59 61 62 64 64 65 63 65 64 65 66 65 66 66 65 66 66 66 67 67 69 70 71 70 71 72 70 70 71 68 66 65 67 68 68 67 70 70 73 73 74 75 76 76 75 73 72 71 72 73 74 74 74 73 72 71 71 69 70 72 71 71 67 65 64
52 50 50 52 51 51 55 56 59 61 62 59 58 58 57 56 57 59 60 62 60 57 56 54 55 54 55 53 55 57 58 58 58 62 61 63 64 65 64 65 64 65 65 65 67 68 67 67 68 69 68 68 69 71 72 71 71 72 69 69 70 70 69 66 66 68 67 68 67 71 74 73 74 75 75 76 76 72 72 72 74 75 75 75 75 74 72 72 73 72 71 72 73 71 69 68 66
49 52 51 52 53 53 55 58 63 61 59 59 58 57 58 56 56 58 59 61 60 58 58 58 57 55 55 54 54 56 58 57 58 61 61 62 63 64 65 65 64 65 64 67 69 68 69 69 69 70 70 68 70 70 71 69 69 69 67 68 68 68 69 68 69 67 69 68 69 70 73 75 75 75 77 76 77 75 72 72 74 74 75 75 74 73 72 72 75 75 74 72 72 71 69 68 67
50 50 52 51 54 56 60 60 62 62 60 60 58 60 59 56 56 57 58 60 60 58 58 58 57 57 53 52 53 55 58 56 58 60 61 62 63 64 66 66 65 65 66 68 68 68 68 68 70 70 70 71 69 69 70 68 67 68 68 65 64 66 68 68 68 68 68 69 72 73 74 72 75 77 77 77 76 74 74 73 75 75 74 75 75 75 74 74 75 75 74 75 71 70 68 66 66
50 50 49 53 52 52 58 59 61 64 59 59 61 60 58 57 56 57 58 59 58 57 58 57 56 57 54 54 54 56 57 57 58 60 60 62 62 64 64 66 66 65 68 68 68 68 68 67 69 69 69 70 70 69 69 68 69 67 66 65 62 63 67 67 67 69 68 69 74 75 75 74 76 77 77 78 77 75 74 72 75 76 75 76 75 76 76 75 76 76 74 75 72 68 69 65 64
50 47 51 49 50 55 58 59 61 62 59 59 59 58 58 58 57 56 57 57 57 57 58 58 57 56 55 53 55 56 56 58 57 58 60 61 63 63 64 64 65 65 66 66 68 68 68 68 70 71 69 70 70 70 70 70 70 68 65 65 63 63 65 67 66 67 69 68 70 74 76 77 76 76 77 77 76 74 74 74 74 75 76 75 76 76 76 77 75 74 74 72 72 69 67 66 69
47 46 46 52 52 54 51 59 60 60 58 58 60 58 59 60 58 57 57 58 59 60 60 60 59 56 55 52 54 55 56 58 58 58 58 59 62 64 64 65 65 64 66 66 66 68 68 70 71 71 71 70 71 71 72 71 71 72 72 68 67 67 67 69 72 70 69 70 69 71 74 76 75 74 74 73 74 75 75 75 74 74 76 76 76 75 75 75 75 74 73 73 74 71 66 66 66
47 48 51 51 49 49 56 55 57 60 59 60 59 59 53 57 57 56 57 58 60 60 59 60 60 59 57 52 55 56 55 57 58 57 57 58 61 63 64 65 64 64 64 65 65 65 65 68 71 72 71 71 71 72 73 72 73 73 72 73 71 71 70 69 68 67 69 70 70 70 72 73 75 74 74 74 74 76 76 76 75 75 75 75 74 74 74 72 73 74 75 74 73 71 69 67 67
43 45 45 43 45 46 52 56 57 56 54 58 54 52 48 52 55 55 57 57 58 58 58 58 59 60 59 55 53 55 55 56 58 57 57 58 60 63 65 65 64 64 64 64 64 64 66 68 71 72 72 71 70 72 73 73 72 70 70 69 68 68 68 66 65 66 64 67 66 68 71 71 73 74 74 75 75 76 77 76 76 75 74 75 73 73 73 71 73 74 75 73 73 74 73 71 66
48 40 42 40 42 46 50 54 52 47 48 55 57 50 49 54 55 57 58 58 59 60 59 57 58 59 59 59 56 54 54 54 56 57 57 56 59 61 63 64 64 63 64 64 64 65 66 68 71 72 72 72 70 73 73 73 72 71 71 68 67 67 66 65 67 65 65 65 68 70 70 71 73 72 73 74 75 77 78 77 77 75 74 75 74 74 73 70 69 72 74 75 74 75 75 74 68
44 51 43 44 42 45 48 49 49 55 54 57 57 51 49 50 53 56 57 58 58 58 58 58 56 58 56 58 55 56 54 54 56 57 58 58 59 60 62 62 62 62 63 63 63 64 67 70 71 72 73 72 72 73 73 73 72 72 71 70 67 66 63 66 69 69 68 70 69 70 69 70 73 72 73 75 76 76 76 77 77 76 74 75 73 73 72 71 72 74 74 75 76 75 75 73 73
40 48 45 52 47 49 50 49 48 47 48 48 53 54 50 46 52 56 57 55 56 56 57 57 57 57 57 57 55 54 55 56 54 55 56 58 59 59 60 61 60 61 62 63 64 64 67 70 72 72 72 73 72 73 74 73 73 72 72 69 69 68 66 66 68 69 69 70 69 70 71 71 74 75 73 73 75 75 75 75 78 76 75 75 73 73 72 72 74 75 75 76 75 74 74 74 74
46 48 50 49 47 49 50 50 48 49 48 46 49 51 47 45 54 54 55 54 55 56 57 57 57 57 57 56 55 54 54 56 55 54 56 57 58 59 59 60 60 60 62 64 64 64 66 69 72 73 73 73 73 74 74 73 73 73 72 71 70 69 68 69 69 69 71 72 70 71 71 72 70 72 74 74 75 74 74 75 74 75 75 73 73 74 74 74 74 76 75 74 74 74 74 73 73
46 44 45 46 47 51 50 52 52 50 46 45 49 51 47 44 52 56 55 54 56 54 56 57 58 57 57 57 55 54 53 54 55 55 55 57 57 59 59 60 62 61 62 64 64 65 65 68 71 72 73 72 73 74 73 73 72 72 72 72 71 71 70 70 70 72 72 73 72 70 71 72 71 71 70 74 73 72 73 74 74 73 74 75 74 74 74 72 71 72 72 74 75 75 73 74 73
41 44 44 48 49 48 50 51 51 46 41 48 48 51 49 44 45 53 53 55 53 55 57 57 57 56 56 58 56 54 53 54 54 54 54 55 58 59 60 61 62 63 62 64 64 65 66 67 70 72 73 73 73 73 73 72 71 72 71 72 71 71 71 69 71 71 71 71 70 70 72 72 73 71 72 71 71 70 74 74 75 75 75 75 75 74 74 73 71 72 72 75 75 75 76 75 73
44 46 46 43 45 44 43 46 41 38 40 47 49 51 50 44 48 50 50 51 52 53 53 55 56 56 55 55 57 56 53 53 54 56 55 54 56 59 59 61 63 65 65 65 63 64 66 68 70 72 73 73 73 73 72 72 72 72 71 71 71 71 71 71 72 71 72 71 70 70 72 72 72 72 71 70 70 71 74 74 76 76 76 76 77 77 76 75 76 74 74 73 73 75 74 75 73
39 39 47 44 39 38 36 38 40 41 43 46 49 52 47 47 50 53 53 56 55 56 57 56 55 57 57 56 56 56 55 53 53 53 54 56 58 59 61 62 63 65 64 64 64 65 66 67 70 71 73 73 74 73 72 72 72 72 72 71 71 71 71 71 70 70 70 71 71 72 70 69 70 70 69 70 70 70 71 73 75 76 78 78 79 79 78 78 78 76 74 74 72 73 75 75 75
36 43 42 44 39 35 37 40 37 38 41 46 51 46 41 42 56 54 56 57 58 58 57 58 58 57 58 57 56 56 56 55 54 54 53 55 58 61 61 62 64 65 64 64 64 66 68 68 70 72 72 73 74 73 72 72 71 72 72 71 71 71 70 69 69 70 71 71 70 70 72 70 69 71 71 72 73 73 71 73 75 75 76 78 79 78 74 76 78 77 76 77 77 73 75 74 73
38 41 40 40 39 37 35 39 42 44 42 45 47 44 45 47 57 55 57 54 57 58 58 57 57 58 57 57 59 59 56 55 53 54 54 56 59 62 61 62 63 64 66 64 64 66 67 69 71 72 72 72 73 74 73 72 72 71 73 73 72 72 72 70 70 72 72 71 72 72 72 74 72 71 73 74 73 74 74 73 74 75 76 76 77 77 77 75 77 75 76 76 76 70 73 75 74
39 39 36 36 39 37 38 39 42 43 43 41 46 41 43 51 52 51 56 55 57 58 58 57 56 57 58 58 58 58 58 56 55 54 55 58 59 62 61 63 62 63 64 64 66 67 70 70 70 71 71 71 72 74 72 72 72 72 72 72 71 71 70 69 67 69 68 70 73 72 71 70 71 73 71 73 73 75 75 74 74 73 75 76 76 77 75 76 77 75 74 77 76 73 76 76 74
45 36 36 40 39 39 39 44 42 42 40 40 39 37 44 40 49 53 54 54 56 57 58 59 58 57 57 58 59 60 60 59 57 56 59 60 62 62 62 61 61 62 62 64 67 67 69 70 69 70 70 70 70 71 70 71 72 72 72 72 72 71 69 67 66 66 68 70 71 72 72 70 70 70 71 70 72 73 74 75 74 75 74 74 74 74 75 75 77 75 74 77 75 75 75 76 75
33 28 37 32 33 34 34 39 36 36 33 35 36 37 40 41 51 51 53 54 57 58 58 59 57 56 57 57 58 61 62 61 59 58 59 61 62 63 64 63 60 62 65 64 65 66 68 68 67 66 68 67 67 67 68 70 70 69 69 70 70 70 69 68 67 68 68 68 68 69 70 70 69 71 73 74 74 72 73 74 75 74 74 74 75 74 75 76 77 75 74 74 74 77 76 76 76
35 38 34 31 35 32 38 41 40 38 36 39 36 32 41 49 51 53 53 56 59 59 58 57 58 57 56 57 58 60 62 61 60 58 58 60 63 64 64 65 63 63 65 65 65 66 65 68 68 66 65 67 68 67 68 68 69 69 68 69 71 72 72 69 69 69 66 67 67 68 69 68 68 69 70 72 72 72 71 72 71 71 70 71 72 72 73 75 76 75 74 72 72 76 76 76 74
32 33 33 33 32 31 33 37 36 35 36 33 31 30 47 53 57 55 58 58 59 61 60 59 59 60 57 56 58 60 62 63 62 61 63 60 61 62 62 64 65 65 66 66 66 68 67 67 67 67 66 65 65 66 67 69 69 69 70 69 68 70 70 69 68 68 67 67 67 68 67 68 70 70 71 70 70 71 72 71 70 72 70 72 73 73 73 74 75 76 75 75 75 76 77 75 75
32 31 36 32 29 30 29 30 29 29 32 32 32 29 49 56 56 58 58 60 61 62 61 61 59 58 61 59 58 60 62 64 65 63 60 62 63 63 60 62 66 65 66 68 67 69 69 69 68 69 68 68 66 65 67 69 70 69 69 68 68 68 70 69 68 66 67 66 65 67 68 69 68 70 70 69 70 69 70 70 70 70 71 71 73 75 73 73 74 74 75 72 72 75 77 75 74